Regional Weather Roundup
Issued by NWS Austin/San Antonio, TX

Current Version | Previous Version | Text Only | Print | Product List | Glossary On
Versions: 1 2 3 4 5 6 7 8 9 10 11 12 13 14 15 16 17 18 19 20 21 22 23 24 25 26 27 28 29 30 31 32 33 34 35 36 37 38 39 40 41 42 43 44 45 46 47 48 49 50
000
ASUS44 KEWX 051611
RWREWX
SOUTH TEXAS REGIONAL WEATHER ROUNDUP
NATIONAL WEATHER SERVICE AUSTIN/SAN ANTONIO TX
1100 AM CDT SUN JUL 05 2020

NOTE: "FAIR" INDICATED FEW OR NO CLOUDS BELOW 12,000 FEET WITH NO
SIGNIFICANT WEATHER AND/OR OBSTRUCTIONS TO VISIBILITY.

* - THESE STATIONS ARE NOT NWS OR FAA STATIONS...AND ARE NOT SUBJECT
    TO NWS AND FAA QUALITY CONTROL.

TXZ171-172-183>190-051700-
TEXAS HILL COUNTRY AND EDWARDS PLATEAU

CITY           SKY/WX    TMP DP  RH WIND       PRES   REMARKS
JUNCTION       SUNNY     91  68  46 S6        29.94S HX  95
*LLANO         SUNNY     91  66  43 NW3       29.94F HX  94
BURNET         PTSUNNY   90  62  39 NW8       29.95R HX  90
*HORSESHOE BAY SUNNY     93  61  33 CALM      29.91F HX  93
*LAGO VISTA    MOSUNNY   90  62  39 S8        29.93S HX  91
*KERRVILLE     SUNNY     89  64  43 S8        29.94S HX  90
*FREDERICKSBRG SUNNY     88  60  38 SW3       29.94F
*ROCKSPRINGS   SUNNY     88  64  45 VRB7G14   30.01F
*BOERNE        SUNNY     86  63  45 S8        29.94F
*CASTROVILLE   SUNNY     90  68  48 MISG      29.92S HX  94
HONDO          SUNNY     88  70  55 S9        29.91S HX  93
*UVALDE          N/A     87  71  59 S7        29.92S HX  92
DEL RIO        SUNNY     92  68  45 SE8       29.87F HX  96
*LAUGHLIN AFB  SUNNY     90  68  47 SE8       29.88F HX  94
*SPOFFORD      NOT AVBL
*EAGLE PASS    NOT AVBL
CARRIZO SPRGS  SUNNY     90  70  51 S8        29.87S HX  95
$$

TXZ173-191>194-202-209-217>225-228-051700-
CENTRAL AND SOUTH CENTRAL TEXAS

CITY           SKY/WX    TMP DP  RH WIND       PRES   REMARKS
GEORGETOWN     PTSUNNY   90  67  46 S7        29.93R HX  93
*TAYLOR        SUNNY     88  72  59 SW10G16   29.90S HX  94
AUSTIN/BERGSTM PTSUNNY   88  72  58 SW12      29.89F HX  94
AUSTIN/MABRY   SUNNY     89  71  55 MISG      29.91S HX  95
*PFLUGERVILLE  SUNNY     86  72  62 S9        29.90F HX  92
SAN MARCOS     SUNNY     88  72  58 SW15      29.91S HX  94
NEW BRAUNFELS  SUNNY     90  70  51 SW10      29.89F HX  95
*RANDOLPH AFB  SUNNY     87  69  54 S10       29.90F HX  92
*SEGUIN        SUNNY     87  69  55 SW10      29.94F HX  91
SAN ANTONIO    PTSUNNY   87  69  54 S8        29.91S HX  91
STINSON FIELD  SUNNY     85  72  65 SE6       29.88F HX  91
*KELLY FIELD   SUNNY     88  72  59 S9        29.89S HX  94
*PLEASANTON    SUNNY     87  75  66 SE7       29.90F HX  96
*KENEDY        SUNNY     86  73  64 S9        29.91F HX  93
*LA GRANGE     MOSUNNY   89  74  61 S7        29.88F HX  97
*GIDDINGS      MOSUNNY   87  74  64 SW8       29.91S HX  95
*GONZALES      CLOUDY    88  73  62 SW6       29.90S HX  96
$$

TXZ163>164-176>182-195>201-210>213-226-227-235-051700-
SOUTHEAST TEXAS

CITY           SKY/WX    TMP DP  RH WIND       PRES   REMARKS
COLLEGE STN    MOSUNNY   87  74  64 S8        29.90S HX  95
*BRYAN         MOSUNNY   87  75  66 SW7       29.92S HX  96
*CALDWELL      MOSUNNY   85  73  67 W8G16     29.91S HX  92
*CROCKETT      NOT AVBL
*BRENHAM       MOSUNNY   87  76  69 W6        29.91R HX  97
HUNTSVILLE     PTSUNNY   85  73  67 VRB7      29.92R HX  91
CONROE         MOSUNNY   86  74  67 SW6       29.91S HX  94
HOUSTON BUSH   PTSUNNY   87  74  64 W6        29.90S HX  95
HOUSTON HOBBY  PTSUNNY   86  74  67 SW10      29.90S HX  94
*HOUSTON SW AP CLOUDY    85  78  79 SW7       29.91S HX  96
PEARLAND       PTSUNNY   87  73  62 W8        29.92S HX  94
HOUSTON HOOKS  PTSUNNY   85  73  67 SW10      29.90S HX  91
ELLINGTON FLD  PTSUNNY   88  75  66 SW12G17   29.89S HX  97
SUGAR LAND     PTSUNNY   86  75  69 SW12      29.90S HX  95
*HOUSTON EXEC  PTSUNNY   86  77  74 W9G17     29.92S HX  97
*CLEVELAND MUN PTSUNNY   85  74  70 CALM      29.93R HX  92
*WHARTON       MOSUNNY   85  71  61 SW12G18   29.92S HX  90
*COLUMBUS      FAIR      84  73  70 SW9       29.92S HX  91
*EAGLE LAKE    MOSUNNY   86  77  74 W12       29.91  HX  97
$$

TXZ214>216-236>238-051700-
THE UPPER TEXAS COAST

CITY           SKY/WX    TMP DP  RH WIND       PRES   REMARKS
*ORANGE        MOSUNNY   87  75  66 NW3       29.94S HX  97
PORT ARTHUR    PTSUNNY   86  76  71 W9        29.91R HX  96
GALVESTON      PTSUNNY   89  77  67 SW20      29.91S HX 101
ANGLETON       PTSUNNY   85  74  69 SW9       29.91F HX  92
*BAY CITY      MOSUNNY   89  76  65 SW14      29.91F HX 100
PALACIOS       MOSUNNY   87  76  69 S14       29.91S HX  97
$$

TXZ229>234-239>247-051700-
TEXAS COASTAL BEND AND RIO GRANDE PLAINS

CITY           SKY/WX    TMP DP  RH WIND       PRES   REMARKS
VICTORIA       MOSUNNY   88  74  63 SW12      29.91F HX  96
*BEEVILLE      SUNNY     87  78  74 S8        29.90S HX  99
ROCKPORT       MOSUNNY   87  75  67 S14G21    29.91R HX  96
*PORT ARANSAS  SUNNY     86  77  74 S13       29.93R HX  97
*PORT LAVACA   PTSUNNY   87  78  73 SW12G17   29.92S HX 100
*INGLESIDE     MOSUNNY   88  78  72 SW10      29.90S HX 102
CORPUS CHRISTI MOSUNNY   86  77  74 S12       29.90S HX  97
CORPUS NAS     MOSUNNY   86  79  79 S9G18     29.90S HX  99
*ROBSTOWN      SUNNY     87  76  69 S14       29.91R HX  98
ALICE          SUNNY     89  75  63 S14       29.88F HX  99
KINGSVILLE NAS SUNNY     91  75  59 S14G23    29.89S HX 101
COTULLA        SUNNY     89  74  60 SE7       29.88F HX  98
LAREDO         SUNNY     89  74  60 S8        29.87F HX  98
$$

TXZ248>255-051700-
DEEP SOUTH TEXAS

CITY           SKY/WX    TMP DP  RH WIND       PRES   REMARKS
BROWNSVILLE    PTSUNNY   89  75  63 S21G26    29.90S HX  99
PORT ISABEL    SUNNY     90  72  55 S17G24    29.89S HX  97
HARLINGEN      SUNNY     91  73  55 S21       29.89S HX  99
*HEBBRONVILLE  SUNNY     88  70  56 S12       29.91S HX  92
MCALLEN        SUNNY     90  71  53 S15       29.89R HX  96
*WESLACO       SUNNY     89  72  56 S16       29.89  HX  96
FALFURRIAS     NOT AVBL
EDINBURG       SUNNY     89  68  49 S15       29.90S HX  93
*ZAPATA        SUNNY     91  73  56 S7        29.89S HX  99
$$

TXZ213>215-236>238-242>244-246-247-251-254-255-051700-
CMAN STATIONS

STATION/POSITION TIME  TEMP    WIND        PRES    WAVE
                       AIR SEA DIR/SP/G            HT/PER
                 (UTC) (F)     (DEG/KT/KT) (MB)    (FT/S)
SABINE PASS      1524   87 87  230/  8/ 13 1014.6
NORTH JETTY/GLS  1524   86 83  260/ 13/ 16 1011.6
EAGLE POINT      1524   85 87  250/  8/ 13 1012.1
MORGANS POINT    1524   84 87  250/  8/ 12 1012.5
PORT O`CONNOR    1524   84 86  220/ 12/ 15 1012.8
PORT ARANSAS     1600   81 83  180/ 13/ 14 1012.9
MALAQUITE BEACH  1530   81     160/ 13/ 15   N/A
BAFFIN BAY       1530   83 87  150/ 13/ 17 1012.9
PORT ISABEL      1530   87 81  180/ 16/ 20 1014.5
$$



USA.gov is the U.S. government's official web portal to all federal, state and local government web resources and services.